Location: Jodlow
(50.1500°N, 16.7500°E)
Time: 02:03:17
(UTC+01:00)

O/OREOS (USA 219) - Visible Passes

Search period start: 29 February 2024 00:00
Search period end: 10 March 2024 00:00
Orbit: 621 x 646 km, 72.0° (Epoch: 22 May)

Date Brightness Start Highest point End Pass type
(mag) Time Alt. Az. Time Alt. Az. Time Alt. Az.
29 Feb ? 05:21:19 10° SSW 05:25:52 69° ESE 05:30:28 10° NNE visible
01 Mar ? 04:05:45 10° SSE 04:08:59 19° E 04:12:14 10° ENE visible
01 Mar ? 05:43:24 10° SW 05:47:57 61° WNW 05:52:32 10° NNE visible
02 Mar ? 04:26:32 10° S 04:30:45 37° ESE 04:35:00 10° NE visible
03 Mar ? 03:13:30 10° ESE 03:14:08 10° E 03:14:46 10° E visible
03 Mar ? 04:48:16 11° SSW 04:52:40 76° ESE 04:57:18 10° NNE visible
04 Mar ? 03:33:16 14° SE 03:35:45 21° ESE 03:39:11 10° NE visible
04 Mar ? 05:10:46 13° SW 05:14:47 56° WNW 05:19:21 10° NNE visible
05 Mar ? 03:55:37 27° SSE 03:57:32 41° ESE 04:01:53 10° NE visible
05 Mar ? 05:33:05 11° WSW 05:37:04 31° NW 05:41:11 10° NNE visible
06 Mar ? 02:40:19 11° ESE 02:40:52 11° E 02:42:23 10° ENE visible
06 Mar ? 04:17:48 39° SSW 04:19:29 83° ESE 04:24:08 10° NNE visible
07 Mar ? 03:02:25 23° ESE 03:02:31 23° ESE 03:06:08 10° NE visible
07 Mar ? 04:39:53 33° WSW 04:41:37 51° WNW 04:46:08 10° NNE visible
08 Mar ? 03:24:25 45° ESE 03:24:25 45° ESE 03:28:44 10° NE visible
08 Mar ? 05:01:53 21° W 05:03:55 29° NW 05:07:57 10° N visible
09 Mar ? 02:08:53 12° E 02:08:53 12° E 02:09:39 10° ENE visible
09 Mar ? 03:46:21 88° NNE 03:46:21 88° NNE 03:50:56 10° NNE visible
09 Mar ? 05:23:48 12° W 05:26:25 18° NW 05:29:32 10° N visible
